This is the latest recevied weather packets stored in our database for station/object AE5HO. If no packets are shown the sender has not sent any weather packets the latest 10 day(s).
| Time | Temp. | Humidity | Pressure | Rain* | Wind** | Luminosity | Snow |
|---|---|---|---|---|---|---|---|
| 1787515552 | 41.11° C | 30% | 1013.7 hPa | 0 mm | - | 81 W/m² | - |
| 1787515252 | 41.11° C | 30% | 1013.7 hPa | 0 mm | - | 75 W/m² | - |
| 1787514947 | 41.11° C | 31% | 1013.7 hPa | 0 mm | - | 70 W/m² | - |
| 1787514644 | 41.11° C | 30% | 1013.8 hPa | 0 mm | - | 65 W/m² | - |
| 1787514339 | 41.11° C | 30% | 1013.9 hPa | 0 mm | - | 65 W/m² | - |
| 1787514038 | 41.11° C | 31% | 1013.7 hPa | 0 mm | - | 61 W/m² | - |
| 1787513734 | 41.11° C | 32% | 1014 hPa | 0 mm | - | 76 W/m² | - |
| 1787513430 | 41.11° C | 32% | 1014 hPa | 0 mm | - | 55 W/m² | - |
| 1787513125 | 41.11° C | 31% | 1013.7 hPa | 0 mm | - | 54 W/m² | - |
| 1787512822 | 41.11° C | 32% | 1014 hPa | 0 mm | - | 53 W/m² | - |
| 1787512517 | 40.56° C | 31% | 1014.3 hPa | 0 mm | - | 50 W/m² | - |
| 1787512213 | 40.56° C | 31% | 1014.2 hPa | 0 mm | - | 62 W/m² | - |
| 1787511908 | 40.56° C | 32% | 1014.5 hPa | 0 mm | - | 50 W/m² | - |
| 1787511603 | 40.56° C | 32% | 1014.6 hPa | 0 mm | - | 57 W/m² | - |
| 1787511301 | 40.56° C | 32% | 1014.5 hPa | 0 mm | - | 54 W/m² | - |
| 1787511002 | 40° C | 31% | 1014.6 hPa | 0 mm | - | 53 W/m² | - |
| 1787510696 | 40.56° C | 31% | 1014.5 hPa | 0 mm | - | 54 W/m² | - |
| 1787510392 | 40° C | 32% | 1014.9 hPa | 0 mm | - | 56 W/m² | - |
| 1787510088 | 40.56° C | 33% | 1014.7 hPa | 0 mm | - | 65 W/m² | - |
| 1787509783 | 40° C | 34% | 1014.8 hPa | 0 mm | - | 62 W/m² | - |
| 1787509480 | 39.44° C | 34% | 1015 hPa | 0 mm | - | 69 W/m² | - |
| 1787509176 | 38.89° C | 33% | 1015.1 hPa | 0 mm | - | 71 W/m² | - |
| 1787508870 | 38.89° C | 34% | 1015 hPa | 0 mm | - | 76 W/m² | - |
| 1787508566 | 39.44° C | 38% | 1015 hPa | 0 mm | - | 83 W/m² | - |
| 1787508262 | 39.44° C | 40% | 1015.3 hPa | 0 mm | - | 81 W/m² | - |
* Rain latest hour (hover to see other rain measurements)
** Current wind speed in m/s (hover to see current wind gust speed)